ARIANE 42P DEB, 47107

Orbit data source: Space-Track

ARIANE 42P DEB, 47107 is space debris in LEO originally from a launch on Mon, 10 Aug 1992 UTC launched from the French Guiana (FRGUI). Debris objects in space refer to the collection of defunct objects orbiting the Earth. Examples of debris include non-operational satellites, rocket bodies, and fragments generated from explosions, collisions, or faulty payload assembly.

Loading next visibility...
Identifier
47107, 1992-052N
Orbit
LEO
Country
Flag of FRFR
Related business
Manufacturer
ArianeGroup
Mission
Spacecraft
Bus & Motor
Unknown
Mass
Unknown
Launch date (UTC)
1992-08-10 (33 years ago)
Launch vehicle
Unknown
Launch site
French Guiana (FRGUI)
Object type
Payload
Rocket body
Debris
Shape & HBR
Unknown shape, 0.1 m
Radar Cross Section
Small (<0.1 m²)

Expand to show TLE details & history
Last TLE update: 6 days ago

TLE from 6 days ago
0 ARIANE 42P DEB
1 47107U 92052N   25300.70445750 -.00000241  00000-0 -74089-3 0  9999
2 47107  66.0635  46.8255 0054514  58.8404 301.7943 12.83971454276977
Epoch: 2025-10-27T16:54Z
TLE epoch observation values (Epoch: 2025-10-27T16:54:25.128Z)
Latitude
0.00004°
Longitude
116.91834°
Altitude
1,305.496 km
Speed
7.215 km/s
True Right ascension
03h 07m 18s
True Declination
0° 00' 00"
Sunlit
Object was in full shadow at epoch
Visualization orbit readout
Latitude
Unknown
Longitude
Unknown
Altitude
Unknown
Speed
Unknown
Apparent Right ascension
Unknown
Apparent Declination
Unknown
Sunlit
N/A
Visualization observer readout
Local Sidereal Time
22:33:58
Azimuth
Unknown
Elevation
Unknown
Doppler factor
Unknown
Orbital elements
Apogee altitude
1,366.089 km
Perigee altitude
1,282.114 km
Semi-major axis
7,702.239 km
Eccentricity
0.00545
Inclination
66.0635°
RAAN
46.8255°
Arg. of periapsis
58.8404°
True anomaly
301.26145°
Mean anomaly
301.7943°
Eccentric anomaly
301.52806°
Mean motion
3.21083 °/min
Orbital period
112.12 mins
BSTAR
-0.00074089
Loading maneuver chart data...
Computing Atmospheric mass density...
Loading historical data...
Loading historical data...
Loading historical data...
Loading historical data...
Loading historical data...
Loading historical data...
Loading historical data...

Documentation

Showing up to 5 results
|